* Astronomy

Members Login
Username 
 
Password 
    Remember Me  
Post Info TOPIC: Asteroid 2006 BH


L

Posts: 131433
Date:
Asteroid 2006 BH
Permalink  
 


Orbital elements:
2006 BH                                                  Earth MOID = 0.3972 AU
Epoch 2012 Mar. 14.0 TT = JDT 2456000.5                 MPC
M   6.57704              (2000.0)            P               Q
n   0.16879296     Peri.  249.18526     -0.85608815     +0.30565386
a   3.2426482      Node   306.15090     +0.02184321     -0.78425902
e   0.6441418      Incl.   31.07321     -0.51636804     -0.53991991
P   5.84           H   18.3           G   0.15           U   0

MPEC 2012 - K27



__________________
Page 1 of 1  sorted by
 
Quick Reply

Please log in to post quick replies.



Create your own FREE Forum
Report Abuse
Powered by ActiveBoard